Regional Weather Roundup
Issued by NWS

Home | Current Version | Previous Version | Graphics & Text | Print | Product List | Glossary On
Versions: 1 2 3 4 5 6 7 8 9 10 11 12 13 14 15 16 17 18 19 20 21 22 23 24 25 26 27 28 29 30 31 32 33 34 35 36 37 38 39 40 41 42 43 44 45 46 47 48 49 50
000
ASUS43 KBIS 011110
RWRND

NORTH DAKOTA REGIONAL WEATHER ROUNDUP
NATIONAL WEATHER SERVICE BISMARCK ND
500 AM CST WED MAR 01 2017

NOTE: "FAIR" INDICATES FEW OR NO CLOUDS BELOW 12,000 FEET WITH NO
SIGNIFICANT WEATHER AND/OR OBSTRUCTIONS TO VISIBILITY.


NDZ001>003-009>011-017-011200-
NORTHWEST NORTH DAKOTA

CITY           SKY/WX    TMP DP  RH WIND       PRES   REMARKS
WILLISTON      FAIR      11   7  84 CALM      30.01R
MINOT          LGT SNOW  14  10  84 NW6       29.97R FOG     WCI   5
MINOT AFB      MOCLDY    11   8  87 NW7       29.97R WCI   1
$$

NDZ018>021-031>035-040>046-011200-
SOUTHWEST NORTH DAKOTA

CITY           SKY/WX    TMP DP  RH WIND       PRES   REMARKS
BISMARCK       CLOUDY    17  12  80 NE5       29.95R WCI  10
DICKINSON      CLOUDY    21  17  84 NW20      29.93R WCI   6
GARRISON         N/A     15  12  88 N6        29.95R WCI   6
HETTINGER ARPT CLOUDY    25  19  78 NW23G30   29.94R WCI  10
$$

NDZ004>008-012>016-024-026-027-054-011200-
NORTHEAST NORTH DAKOTA

CITY           SKY/WX    TMP DP  RH WIND       PRES   REMARKS
GRAND FORKS    CLOUDY    10  -1  61 NW12      29.96R WCI  -5
GRND FRKS AFB  CLOUDY     8   0  69 N9        29.96R WCI  -5
DEVILS LAKE    LGT SNOW  10   7  87 N7        29.96S FOG     WCI  -1
$$

NDZ022-023-025-028>030-036>039-047>053-011200-
SOUTHEAST NORTH DAKOTA

CITY           SKY/WX    TMP DP  RH WIND       PRES   REMARKS
FARGO          PTCLDY    16  11  80 NW10      29.93R WCI   4
JAMESTOWN      CLOUDY    13   8  81 NW10      29.93R WCI   0
$$




USA.gov is the U.S. government's official web portal to all federal, state and local government web resources and services.